Powrót do katalogu

DELTA 1 DEB

AktywnyPO
NORAD 26840·DEBRIS·🇺🇸 United States

Wystrzelony Jun 12, 1975 z Vandenberg Space Force Base

Loading…

Następne Przeloty (najbliższe 24 godziny)

TLE

Starzejące sięSource: Space-Track

Epoka: Sep 11, 2026, 03:16 UTC

1 26840U 75052KU  26254.13670250  .00000006  00000-0  15722-3 0  9998
2 26840  99.6994 133.8072 0363439 219.4240 298.9401 12.73397506603940

Śledź DELTA 1 DEB w czasie rzeczywistym z AllMySat

Download on the App Store